Showing default

HAWK-12A, 64623

Orbit data source: Space-Track

HAWK-12A, 64623 is a payload satellite owned by HawkEye 360 (US) in SSO that was launched on Thu, 26 Jun 2025 UTC via an ELECTRON launch vehicle from the Rocket Lab Launch Complex (RLLC). Payload-class satellites include a variety of spacecraft equipped with specific instruments for various scientific and technological missions. These include communications satellites like Starlink; space stations such as the ISS; scientific satellites like the Hubble; Earth observation satellites from companies like Planet Labs, Umbra, and HawkEye 360; GPS; miniature CubeSats for education and research; and military/defense satellites.

Loading next visibility...
Identifier
64623, 2025-138C
Orbit
SSO
Country
Flag of USUS
Related business
Manufacturer
UTIAS-SFL
Mission
Operational Commercial Sigint
Bus & Motor
HAWK2G, Unknown motor
Mass
31 kg wet, 30 kg dry
Launch date (UTC)
2025-06-26 (1 year ago)
Launch vehicle
ELECTRON
Launch site
Rocket Lab Launch Complex (RLLC)
Object type
Payload
Rocket body
Debris
Shape & HBR
Box + 2 Pan, 1.0 m
Radar Cross Section
0.240 m², Medium (>0.1 m² and < 1m²)

Expand to show TLE details & history
Last TLE update: 22 hours ago

TLE from 22 hours ago
0 HAWK-12A
1 64623U 25138C   26170.94216619  .00003375  00000-0  16779-3 0  9995
2 64623  97.4403 173.6653 0015467 124.5437 235.7260 15.18219195 54286
Epoch: 2026-06-19T22:36Z
TLE epoch observation values (Epoch: 2026-06-19T22:36:43.158Z)
Latitude
0.00001°
Longitude
-73.67843°
Altitude
520.323 km
Speed
7.6 km/s
True Right ascension
11h 34m 39s
True Declination
0° 00' 00"
Sunlit
Object was in daylight at epoch
Visualization orbit readout
Latitude
Unknown
Longitude
Unknown
Altitude
Unknown
Speed
Unknown
Apparent Right ascension
Unknown
Apparent Declination
Unknown
Sunlit
N/A
Visualization observer readout
Local Sidereal Time
07:20:17
Azimuth
Unknown
Elevation
Unknown
Doppler factor
Unknown
Orbital elements
Apogee altitude
518.843 km
Perigee altitude
497.541 km
Semi-major axis
6,886.329 km
Eccentricity
0.00155
Inclination
97.4403°
RAAN
173.6653°
Arg. of periapsis
124.5437°
True anomaly
235.5797°
Mean anomaly
235.726°
Eccentric anomaly
235.65283°
Mean motion
3.79806 °/min
Orbital period
94.79 mins
BSTAR
0.00016779
Loading maneuver chart data...
Computing Atmospheric mass density...
Loading historical data...
Loading historical data...
Loading historical data...
Loading historical data...
Loading historical data...
Loading historical data...
Loading historical data...

Documentation

Showing up to 5 results
|